Flag for Lithuania Weather past 2 weeks in Kaunas, Lithuania

Now
72 °F

Passing clouds.


Feels Like: 77 °F
Forecast: 56 / 72 °F
Wind: 3 mph from Northwest

Location: Kaunas

Current Time: Aug 30, 2015 at 7:48:54 PM

Latest Report: Aug 30, 2015 at 7:20 PM


Visibility: N/A

Pressure: 30.12 "Hg

Humidity: 47%

Dew point: 50 °F

Location of KaunasLocation

Historic Weather in Kaunas — Graph

°F

Kaunas temperature yesterday

Maximum temperature yesterday: 72 °F (at 3:50 PM)
Minimum temperature yesterday: 54 °F (at 3:50 AM)
Average temperature yesterday: 62 °F

Past Weeks' High & Low Weather Summary

 TemperatureHumidityPressure
High88 °F (Aug 25, 2:50 PM)100% (Aug 26, 1:00 AM)30.42 "Hg (Aug 26, 1:00 AM)
Low43 °F (Aug 20, 5:50 AM)24% (Aug 25, 5:20 PM)29.83 "Hg (Aug 28, 9:20 AM)
Average65 °F60%30.14 "Hg
* Reported Aug 15 6:20 PM — Aug 30 6:20 PM, Kaunas, Weather by CustomWeather, © 2015

Note: Actual official high and low records may vary slightly from our data, if they occured in-between our weather recording intervals... More about our weather records

Advertising

Kaunas weather history for previous 24 hours

 ConditionsComfort  
Time TempWeatherWind HumidityBarometerVisibility
6:20 PM
Sun, Aug 30
73 °FPassing clouds.5 mph44%30.12 "HgN/A
5:50 PM73 °FPassing clouds.6 mph44%30.12 "HgN/A
5:20 PM73 °FPassing clouds.7 mph41%30.12 "HgN/A
4:50 PM73 °FPassing clouds.10 mph41%30.12 "HgN/A
4:20 PM73 °FPassing clouds.9 mph44%30.15 "HgN/A
3:50 PM73 °FPassing clouds.9 mph44%30.15 "HgN/A
3:20 PM73 °FPassing clouds.8 mph44%30.15 "HgN/A
2:50 PM73 °FSunny.3 mph44%30.18 "Hg10 mi
2:20 PM70 °FBroken clouds.9 mph50%30.18 "HgN/A
1:50 PM70 °FMore clouds than sun.7 mph50%30.21 "HgN/A
1:20 PM70 °FBroken clouds.7 mph50%30.21 "HgN/A
12:50 PM70 °FPassing clouds.6 mph46%30.21 "HgN/A
12:20 PM68 °FPassing clouds.8 mph49%30.21 "HgN/A
11:50 AM68 °FPassing clouds.8 mph49%30.21 "HgN/A
11:20 AM66 °FPassing clouds.6 mph56%30.21 "HgN/A
10:50 AM63 °FPassing clouds.8 mph68%30.24 "HgN/A
10:20 AM61 °FPassing clouds.6 mph77%30.24 "Hg6 mi
9:50 AM59 °FPassing clouds.3 mph82%30.24 "HgN/A
9:20 AM57 °FPartly sunny.3 mph88%30.24 "HgN/A
8:50 AM54 °FBroken clouds.5 mph94%30.24 "HgN/A
8:20 AM54 °FBroken clouds.2 mph88%30.27 "HgN/A
7:50 AM52 °FScattered clouds.No wind94%30.24 "HgN/A
7:20 AM48 °FFog.2 mph100%30.24 "HgN/A
6:50 AM48 °FFog.2 mph100%30.24 "Hg5 mi
6:20 AM46 °FFog.No wind100%30.24 "Hg6 mi
5:50 AM45 °FFog.2 mph100%30.24 "Hg6 mi
5:20 AM46 °FFog.No wind93%30.24 "Hg4 mi
4:50 AM46 °FPassing clouds.No wind93%30.24 "HgN/A
4:20 AM46 °FClear.No wind100%30.24 "Hg10 mi
3:50 AM46 °FFog.No wind93%30.24 "HgN/A
3:20 AM48 °FCool.No wind94%30.24 "Hg1 mi
2:50 AM50 °FCool.No wind94%30.24 "HgN/A
2:20 AM50 °FCool.No wind94%30.24 "HgN/A
1:50 AM52 °FCool.No wind88%30.24 "HgN/A
1:20 AM50 °FCool.No wind88%30.24 "HgN/A
12:20 AM54 °FCool.3 mph82%30.24 "HgN/A
11:50 PM
Sat, Aug 29
55 °FClear.3 mph82%30.24 "Hg10 mi
11:20 PM55 °FClear.5 mph77%30.24 "Hg10 mi
10:50 PM55 °FClear.3 mph77%30.21 "Hg10 mi
10:20 PM57 °FClear.5 mph72%30.21 "Hg10 mi
9:50 PM59 °FClear.7 mph68%30.21 "Hg10 mi
9:20 PM61 °FPassing clouds.7 mph63%30.21 "HgN/A
8:50 PM63 °FSunny.7 mph59%30.21 "Hg10 mi
8:20 PM64 °FSunny.9 mph56%30.21 "Hg10 mi
7:50 PM66 °FPassing clouds.13 mph49%30.18 "HgN/A
7:20 PM68 °FPassing clouds.14 mph46%30.18 "HgN/A
Weather by CustomWeather, © 2015

See weather overviewHow to use our weather pages